Location: Frydek-Mistek
(49.6830°N, 18.3330°E)
Time: 01:47:52
(UTC+01:00)

ISS - Pass Details

Date: 04 October 2020
Orbit: 417 x 420 km, 51.6° (Epoch: 25 October)

Event Time Altitude Azimuth Distance (km) Brightness Sun altitude
Rises 20:21:00 0° 284° (WNW) 2,369 1.7 -20.5°
Reaches altitude 10° 20:23:36 10° 263° (W) 1,501 0.0 -20.9°
Maximum altitude 20:25:51 17° 221° (SW) 1,147 -1.3 -21.3°
Enters shadow 20:26:34 16° 205° (SSW) 1,186 -1.4 -21.4°
